San Luis Obispo, CA

9:33 AM PST on December 08, 2016 (GMT -0800)
San Luis Obispo County-McChesney

Weather History for KSBP - August, 2014

Change the Weather History Date:

Sunday, August 17, 2014

  Actual Average Record
Temperature  
Mean Temperature 68 °F -  
Max Temperature 79 °F 79 °F 94 °F (1962)
Min Temperature 57 °F 53 °F 47 °F (1988)
Cooling Degree Days 2    
Growing Degree Days 18 (Base 50)    
Moisture  
Dew Point 56 °F    
Average Humidity 78    
Maximum Humidity 100    
Minimum Humidity 45    
Precipitation  
Precipitation 0.00 in - - ()
Sea Level Pressure  
Sea Level Pressure 29.96 in    
Wind  
Wind Speed 9 mph (NW)    
Max Wind Speed 17 mph    
Max Gust Speed -    
Visibility 10 miles    
Events      
Averages and records for this station are not official NWS values.
T = Trace of Precipitation, MM = Missing Value Source: NWS Daily Summary

Daily Weather History Graph

Daily Weather History Graph

Search for Another Location

Airport or City:

Trip Planner

Search our weather history database for the weather conditions in past years. The results will help you decide how hot, cold, wet, or windy it might be!

Date:

Astronomy

Aug. 17, 2014 Rise Set
Actual Time 6:23 AM PDT 7:48 PM PDT
Civil Twilight 5:57 AM PDT 8:15 PM PDT
Nautical Twilight 5:24 AM PDT 8:47 PM PDT
Astronomical Twilight 4:51 AM PDT 9:20 PM PDT
Moon No Moon Rise 1:56 PM PDT (8/17)
Length of Visible Light 14h 18m
Length of Day
13h 24m
Waning Gibbous, 47% of the Moon is Illuminated
Aug 17
Waning Gibbous
Aug 25
New
Sep 2
First Quarter
Sep 8
Full
Sep 15
Last Quarter

Hourly Weather History & Observations

Time (PDT) Temp. Dew Point Humidity Pressure Visibility Wind Dir Wind Speed Gust Speed Precip Events Conditions
12:47 AM 57.2 °F 57.2 °F 100% 29.99 in 10.0 mi NW 6.9 mph - N/A   Partly Cloudy
12:56 AM 57.9 °F 57.0 °F 97% 29.99 in 10.0 mi NW 8.1 mph - N/A   Partly Cloudy
1:25 AM 59.0 °F 57.2 °F 94% 29.99 in 10.0 mi NW 8.1 mph - N/A   Mostly Cloudy
1:56 AM 59.0 °F 57.0 °F 93% 29.98 in 10.0 mi NW 8.1 mph - N/A   Overcast
2:56 AM 59.0 °F 57.0 °F 93% 29.98 in 10.0 mi NNW 9.2 mph - N/A   Overcast
3:56 AM 59.0 °F 55.9 °F 90% 29.98 in 10.0 mi NNW 5.8 mph - N/A   Overcast
4:56 AM 57.9 °F 55.9 °F 93% 29.98 in 10.0 mi NW 6.9 mph - N/A   Overcast
5:56 AM 57.9 °F 55.9 °F 93% 29.99 in 10.0 mi NW 5.8 mph - N/A   Overcast
6:56 AM 57.9 °F 55.0 °F 90% 30.01 in 10.0 mi WNW 4.6 mph - N/A   Overcast
7:56 AM 57.9 °F 55.0 °F 90% 30.02 in 10.0 mi West 3.5 mph - N/A   Overcast
9:29 AM 60.8 °F 55.4 °F 82% 30.02 in 10.0 mi WNW 6.9 mph - N/A   Scattered Clouds
9:56 AM 66.0 °F 55.0 °F 68% 30.02 in 10.0 mi NW 6.9 mph - N/A   Clear
10:56 AM 69.1 °F 55.0 °F 61% 30.01 in 10.0 mi WNW 9.2 mph - N/A   Clear
11:56 AM 73.9 °F 55.0 °F 52% 29.99 in 10.0 mi NW 9.2 mph - N/A   Clear
12:56 PM 78.1 °F 55.0 °F 45% 29.97 in 10.0 mi NW 11.5 mph - N/A   Clear
1:56 PM 78.1 °F 55.0 °F 45% 29.95 in 10.0 mi NW 17.3 mph - N/A   Clear
2:56 PM 77.0 °F 55.9 °F 48% 29.93 in 10.0 mi NW 17.3 mph - N/A   Clear
3:56 PM 75.0 °F 55.9 °F 51% 29.92 in 10.0 mi NW 13.8 mph - N/A   Clear
4:56 PM 73.0 °F 57.0 °F 57% 29.91 in 10.0 mi WNW 16.1 mph - N/A   Clear
5:56 PM 70.0 °F 57.0 °F 63% 29.91 in 10.0 mi NW 15.0 mph - N/A   Clear
6:56 PM 66.0 °F 57.0 °F 73% 29.91 in 10.0 mi NW 15.0 mph - N/A   Clear
7:56 PM 62.1 °F 57.0 °F 84% 29.91 in 10.0 mi NW 11.5 mph - N/A   Clear
8:56 PM 61.0 °F 57.0 °F 87% 29.92 in 10.0 mi NNW 10.4 mph - N/A   Clear
9:56 PM 60.1 °F 57.0 °F 90% 29.93 in 10.0 mi NW 8.1 mph - N/A   Clear
10:27 PM 60.8 °F 57.2 °F 88% 29.93 in 10.0 mi NW 9.2 mph - N/A   Partly Cloudy
10:56 PM 60.1 °F 57.0 °F 90% 29.93 in 10.0 mi NW 9.2 mph - N/A   Mostly Cloudy
11:56 PM 59.0 °F 57.0 °F 93% 29.91 in 10.0 mi WNW 9.2 mph - N/A   Overcast